sat.trackr.live / text

‹ back to catalog

STARLINK-31087

NORAD 58597 · 2023-200J

PAYLOAD ACTIVE UNKNOWN

§ Identity

Operator
Country
US
Launch date
2023-12-19
Launch site
AFETR
Launch vehicle
Mass (kg)
RCS (m²)

Purposes: comms

External: N2YO · Heavens-Above · Gunter

§ Orbital elements

Epoch: 2026-09-20T01:51:13.815072Z

Period
94.27 min
Inclination
43.0060°
Eccentricity
0.0001582
Mean motion
15.27573813 rev/d
Perigee alt
482.0 km
Apogee alt
484.2 km
Semi-major
6,861.2 km
B*
4.0347e-6
RAAN
150.7382°
Arg perigee
251.6437°
Mean anomaly
108.4243°
Rev number
15,323

§ Raw data

STARLINK-310871 58597U 23200J   26263.07724323 -.00000151  00000+0  40347-5 0  99982 58597  43.0060 150.7382 0001582 251.6437 108.4243 15.27573813153237

JSON: /api/v1/satellites/58597 · /tle

For live sub-satellite position, see the globe view (requires WebGL).

§ Visibility from observer

Set your observer location to see the next 7 days of passes ≥ 10°. The values pass through the URL so the page stays shareable.

No JS? Fill the form by hand. The geolocation button needs JavaScript.